DELTA 1 R/B, 1433

Orbit data source: Space-Track

DELTA 1 R/B, 1433 is space debris in SSO originally from a launch on Fri, 02 Jul 1965 UTC launched from the Air Force Eastern Test Range (AFETR). Debris objects in space refer to the collection of defunct objects orbiting the Earth. Examples of debris include non-operational satellites, rocket bodies, and fragments generated from explosions, collisions, or faulty payload assembly.

Loading next visibility...
Identifier
1433, 1965-051B
Orbit
SSO
Last TLE update
10 hours ago
Origin
Manufacturer
ABL
Mission
Spacecraft
Bus & Motor
ALTAIR, Unknown motor
Mass
60 kg wet, 60 kg dry
Launch date (UTC)
1965-07-02 (60 years ago)
Launch vehicle
Unknown
Launch site
Air Force Eastern Test Range (AFETR)
Object type
Payload
Rocket body
Debris
Shape & HBR
Cyl, 1.5 m
Radar Cross Section
0.687 m², Medium (>0.1 m² and < 1m²)

Expand to show TLE details & history

TLE from 10 hours ago
0 DELTA 1 R/B
1 01433U 65051B   25128.92076742  .00001538  00000-0  31631-3 0  9997
2 01433  98.5210 269.4760 0040634  87.4317 273.1533 14.61591867135752
Epoch: 2025-05-08T22:05Z
Definitive object data (Epoch: 2025-05-08T22:05:54.305Z)
Latitude
-0.00006°
Longitude
71.0154°
Altitude
689.553 km
Speed
7.512 km/s
True Right ascension
17h 57m 54s
True Declination
0° 00' 00"
Sunlit
Object was in full shadow at TLE epoch
Visualization TLE readout
Latitude
-27.23872°
Longitude
75.83278°
Altitude
709.576 km
Speed
7.494 km/s
Apparent Right ascension
21h 40m 07s
Apparent Declination
-63° 48' 35"
Sunlit
Object is in full shadow
Visualization observer readout
Local Sidereal Time
15:58:55
Azimuth
148.273° SSE
Elevation
-33.233°
Doppler factor
1
Orbital elements
Apogee altitude
713.834 km
Perigee altitude
656.432 km
Semi-major axis
7,063.27 km
Eccentricity
0.0040634
Inclination
98.521°
RAAN
269.476°
Arg. of periapsis
87.4317°
True anomaly
272.68825°
Mean anomaly
273.1533°
Eccentric anomaly
272.92079°
Mean motion
3.65624 °/min
BSTAR
0.00031631
Orbital period
98.46 mins
Loading maneuver chart data...
Loading SW <> Apogee altitude chart data...
Loading historical data...
Loading historical data...
Loading historical data...
Loading historical data...
Loading historical data...
Loading historical data...
Loading historical data...
Other satellites on launch #51 in the year 1965 (1965-07-02 UTC)

DELTA 1 R/B Visibility forecast

Observer location: undefined°, undefined°

Span
Click to sort rows by Start time (UTC) header in descending order
Start Az.
Max El. time (UTC)
Max El. Az.
Max El.
End time (UTC)
End Az.
5 mins2025-05-09 08:06:51.993Z102.789° ESE2025-05-09 08:09:51.993Z61.036° ENE15.94°2025-05-09 08:11:51.993Z32.154° NE
7 mins2025-05-09 09:43:51.993Z193.4° SSW2025-05-09 09:46:51.993Z267.146° W36.525°2025-05-09 09:50:51.993Z333.976° NNW
6 mins2025-05-09 21:41:51.993Z43.859° NE2025-05-09 21:43:51.993Z83.624° E30.668°2025-05-09 21:47:51.993Z162.445° S
5 mins2025-05-09 23:19:51.993Z322.365° NNW2025-05-09 23:21:51.993Z287.417° WNW19.395°2025-05-09 23:24:51.993Z246.377° WSW
|